Location: *
(37.5724°S, 58.0067°E)
Time: 11:45:14
(UTC+00:00)

NOSS 3-1 (A) - Pass Details

Date: 26 September 2020
Orbit: 745 x 1467 km, 63.4° (Epoch: 08 October)

Event Time Altitude Azimuth Distance (km) Brightness Sun altitude
Exits shadow 22:55:14 60° 18° (NNE) 1,579 4.3 -33.4°
Maximum altitude 22:56:35 68° 62° (ENE) 1,480 4.3 -33.2°
Drops below altitude 10° 23:04:34 10° 142° (SE) 3,247 7.0 -31.9°
Sets 23:07:12 0° 144° (SE) 4,124 7.7 -31.4°
